GW0531 Weather Reports


Display with metric or nautical units.
time (UTC)temp
F
wind
direction
speed
MPH
gust
MPH
rain 1hr
in
rain 24hr
in
rain mn
in
humidity
%
barometer
mb
20260906111151 71 89 0.0 1.0 0.00 0.00 0.00 96 1011.8
20260906110646 71 164 0.0 1.0 0.00 0.00 0.00 96 1011.6
20260906110142 71 246 1.0 2.0 0.00 0.00 0.00 96 1011.7
20260906105636 71 269 0.0 0.0 0.00 0.00 0.00 96 1011.3
20260906105132 71 183 0.0 1.0 0.00 0.00 0.00 96 1011.3
20260906104631 71 306 0.0 1.0 0.00 0.00 0.00 96 1011.5
20260906104131 71 214 0.0 1.0 0.00 0.00 0.00 96 1011.4
20260906103629 71 160 0.0 0.0 0.00 0.00 0.00 96 1011.5
20260906103124 72 160 0.0 0.0 0.00 0.00 0.00 96 1011.4
20260906102620 72 163 1.0 1.0 0.00 0.00 0.00 95 1011.3
20260906102114 72 269 0.0 1.0 0.00 0.00 0.00 95 1011.3
20260906101615 72 300 0.0 1.0 0.00 0.00 0.00 95 1011.0
20260906101114 72 269 1.0 2.0 0.00 0.00 0.00 95 1011.3
20260906100610 72 297 0.0 1.0 0.00 0.00 0.00 95 1011.1
20260906100110 72 343 0.0 1.0 0.00 0.00 0.00 95 1011.0
20260906095610 72 297 0.0 0.0 0.00 0.00 0.00 95 1011.1
20260906095106 72 309 0.0 1.0 0.00 0.00 0.00 95 1010.9
20260906094604 72 103 0.0 0.0 0.00 0.00 0.00 95 1010.9
20260906094101 72 117 0.0 1.0 0.00 0.00 0.00 95 1010.8
20260906093556 72 256 0.0 0.0 0.00 0.00 0.00 95 1010.8
20260906093051 72 315 0.0 1.0 0.00 0.00 0.00 95 1010.7
20260906092546 72 309 0.0 1.0 0.00 0.00 0.00 94 1010.8
20260906092041 72 309 0.0 0.0 0.00 0.00 0.00 94 1010.5
20260906091537 72 230 0.0 0.0 0.00 0.00 0.00 94 1010.7
20260906091033 72 326 0.0 0.0 0.00 0.00 0.00 94 1010.7
20260906090534 72 230 0.0 1.0 0.00 0.00 0.00 94 1010.5
20260906090034 72 336 0.0 1.0 0.00 0.00 0.00 94 1010.7
20260906085532 72 251 1.0 1.0 0.00 0.00 0.00 94 1010.6
20260906085033 72 300 2.0 2.0 0.00 0.00 0.00 94 1010.6
20260906084533 72 323 0.0 1.0 0.00 0.00 0.00 94 1010.7
20260906084031 72 296 1.0 1.0 0.00 0.00 0.00 94 1010.6
20260906083527 72 319 0.0 1.0 0.00 0.00 0.00 94 1010.6
20260906083027 72 297 0.0 1.0 0.00 0.00 0.00 94 1010.7
20260906082522 72 311 1.0 2.0 0.00 0.00 0.00 94 1010.6
20260906082018 72 336 0.0 1.0 0.00 0.00 0.00 94 1010.7
20260906081514 72 242 0.0 0.0 0.00 0.00 0.00 94 1010.8
20260906081009 72 319 0.0 1.0 0.00 0.00 0.00 94 1010.8
20260906080506 72 346 0.0 1.0 0.00 0.00 0.00 94 1010.9
20260906080002 72 315 0.0 1.0 0.00 0.00 0.00 94 1011.0
20260906075456 72 280 0.0 2.0 0.00 0.00 0.00 94 1011.1
20260906074951 72 321 0.0 1.0 0.00 0.00 0.00 94 1011.0
20260906074450 72 243 0.0 1.0 0.00 0.00 0.00 94 1011.0
20260906073949 72 228 1.0 1.0 0.00 0.00 0.00 94 1011.3
20260906073444 72 273 1.0 2.0 0.00 0.00 0.00 93 1011.2
20260906072940 72 331 0.0 2.0 0.00 0.00 0.00 93 1011.1
20260906072435 73 313 0.0 2.0 0.00 0.00 0.00 93 1011.0
20260906071931 73 164 0.0 0.0 0.00 0.00 0.00 93 1011.0
20260906071427 73 164 0.0 0.0 0.00 0.00 0.00 93 1011.1
20260906070923 73 181 0.0 1.0 0.00 0.00 0.00 92 1011.1
20260906070418 73 309 0.0 0.0 0.00 0.00 0.00 92 1011.1
20260906065914 73 311 0.0 1.0 0.00 0.00 0.00 92 1011.3
20260906065408 73 293 0.0 1.0 0.00 0.00 0.00 92 1011.5
20260906064904 73 269 2.0 2.0 0.00 0.00 0.00 91 1011.6
20260906064400 73 309 1.0 1.0 0.00 0.00 0.00 91 1011.5
20260906063900 73 348 1.0 1.0 0.00 0.00 0.00 91 1011.6
20260906063355 73 205 0.0 0.0 0.00 0.00 0.00 91 1011.6
20260906062850 73 154 0.0 0.0 0.00 0.00 0.00 90 1011.7
20260906062349 74 36 0.0 1.0 0.00 0.00 0.00 90 1011.6
20260906061845 74 26 0.0 2.0 0.00 0.00 0.00 90 1011.7
20260906061341 74 340 1.0 1.0 0.00 0.00 0.00 90 1011.5
20260906060836 74 322 0.0 0.0 0.00 0.00 0.00 90 1011.6
20260906060334 74 345 0.0 0.0 0.00 0.00 0.00 90 1011.4
20260906055829 74 242 0.0 0.0 0.00 0.00 0.00 89 1011.5
20260906055325 74 150 0.0 0.0 0.00 0.00 0.00 89 1011.6
20260906054820 74 154 0.0 0.0 0.00 0.00 0.00 89 1011.3
20260906054315 75 235 0.0 0.0 0.00 0.00 0.00 88 1011.5
20260906053812 75 322 0.0 0.0 0.00 0.00 0.00 88 1011.3
20260906053307 75 244 1.0 2.0 0.00 0.00 0.00 88 1011.6
20260906052802 75 280 0.0 2.0 0.00 0.00 0.00 88 1011.4
20260906052258 75 242 0.0 0.0 0.00 0.00 0.00 88 1011.7
20260906051755 75 113 0.0 1.0 0.00 0.00 0.00 87 1011.6
20260906051254 75 141 0.0 2.0 0.00 0.00 0.00 87 1011.5
20260906050750 75 319 0.0 2.0 0.00 0.00 0.00 87 1011.7
20260906050245 75 277 1.0 2.0 0.00 0.00 0.00 87 1011.9
20260906045744 75 4 2.0 2.0 0.00 0.00 0.00 87 1011.8
20260906045238 75 315 0.0 1.0 0.00 0.00 0.00 88 1011.9
20260906044734 75 291 0.0 1.0 0.00 0.00 0.00 87 1012.0
20260906044230 75 12 2.0 2.0 0.00 0.00 0.00 87 1012.0
20260906043726 75 32 0.0 2.0 0.00 0.00 0.00 87 1012.0
20260906043222 75 318 0.0 2.0 0.00 0.00 0.00 88 1012.2
20260906042721 76 292 1.0 1.0 0.00 0.00 0.00 87 1012.3
20260906042220 76 277 1.0 2.0 0.00 0.00 0.00 87 1012.0
20260906041716 76 300 1.0 2.0 0.00 0.00 0.00 87 1012.3
20260906041211 76 359 1.0 2.0 0.00 0.00 0.00 88 1012.1
20260906040707 76 240 0.0 2.0 0.00 0.00 0.00 88 1012.3
20260906040202 76 301 0.0 2.0 0.00 0.00 0.00 88 1012.3
20260906035658 76 217 0.0 1.0 0.00 0.00 0.00 88 1012.5
20260906035153 76 334 2.0 2.0 0.00 0.00 0.00 89 1012.3
20260906034652 76 221 2.0 2.0 0.00 0.00 0.00 90 1012.3
20260906034147 76 269 1.0 2.0 0.00 0.00 0.00 90 1012.4
20260906033644 76 277 2.0 2.0 0.00 0.00 0.00 90 1012.3
20260906033143 76 317 1.0 2.0 0.00 0.00 0.00 90 1012.2
20260906032640 76 180 0.0 1.0 0.00 0.00 0.00 91 1012.4
20260906032140 77 287 2.0 3.0 0.00 0.00 0.00 91 1012.3
20260906031636 77 303 2.0 2.0 0.00 0.00 0.00 91 1012.3
20260906031131 77 287 1.0 2.0 0.00 0.00 0.00 90 1012.3
20260906030630 77 282 1.0 2.0 0.00 0.00 0.00 90 1012.2
20260906030126 77 279 0.0 2.0 0.00 0.00 0.00 90 1012.3
20260906025625 77 280 1.0 2.0 0.00 0.00 0.00 89 1012.1
20260906025124 77 317 1.0 3.0 0.00 0.00 0.00 89 1012.2
20260906024619 77 150 0.0 2.0 0.00 0.00 0.00 89 1012.2
20260906024119 77 336 2.0 2.0 0.00 0.00 0.00 88 1012.2
20260906023615 77 248 2.0 2.0 0.00 0.00 0.00 88 1012.1
20260906023109 77 30 1.0 2.0 0.00 0.00 0.00 87 1011.7
20260906022604 77 242 0.0 3.0 0.00 0.00 0.00 86 1012.0
20260906022100 77 232 1.0 3.0 0.00 0.00 0.00 86 1011.6
20260906021556 78 293 2.0 3.0 0.00 0.00 0.00 86 1011.2
20260906021054 78 117 2.0 4.0 0.00 0.00 0.00 86 1011.3
20260906020554 78 317 2.0 3.0 0.00 0.00 0.00 85 1011.3
20260906020054 78 25 0.0 3.0 0.00 0.00 0.00 85 1011.1
20260906015554 78 193 0.0 3.0 0.00 0.00 0.00 85 1011.2
20260906015054 78 188 4.0 4.0 0.00 0.00 0.00 83 1011.5
20260906014554 78 262 2.0 3.0 0.00 0.00 0.00 84 1011.4
20260906014050 78 297 0.0 2.0 0.00 0.00 0.00 85 1011.6
20260906013544 77 309 2.0 4.0 0.00 0.00 0.00 84 1010.7
20260906013040 78 253 4.0 4.0 0.00 0.00 0.00 83 1009.5
20260906012535 77 45 0.0 2.0 0.00 0.00 0.00 85 1009.2
20260906012034 77 86 2.0 2.0 0.00 0.00 0.00 85 1009.3
20260906011531 77 141 2.0 2.0 0.00 0.00 0.00 85 1009.6
20260906011031 77 154 0.0 0.0 0.00 0.00 0.00 85 1010.1
20260906010526 77 103 0.0 2.0 0.00 0.00 0.00 84 1010.6
20260906010022 78 173 0.0 1.0 0.00 0.00 0.00 83 1010.9
20260906005521 78 299 0.0 1.0 0.00 0.00 0.00 81 1011.1
20260906005021 79 93 2.0 2.0 0.02 0.00 0.00 79 1011.2
20260906004520 80 176 1.0 2.0 0.00 0.00 0.00 76 1011.7
20260906004015 81 269 0.0 2.0 0.00 0.00 0.00 73 1011.8
20260906003511 82 253 1.0 7.0 0.00 0.00 0.00 69 1012.1
20260906003007 84 296 2.0 5.0 0.00 0.00 0.00 65 1012.0
20260906002507 86 335 7.0 10.0 0.00 0.00 0.00 64 1012.3
20260906002001 87 279 2.0 2.0 0.00 0.00 0.00 73 1011.9
20260906001457 87 204 3.0 6.0 0.00 0.00 0.00 76 1012.0
20260906000951 86 300 2.0 3.0 0.00 0.00 0.00 80 1012.2
20260906000448 86 299 2.0 2.0 0.00 0.00 0.00 82 1012.1
20260905235942 86 276 1.0 1.0 0.00 0.00 0.00 82 1011.5
20260905235442 86 202 0.0 1.0 0.00 0.00 0.00 81 1011.6
20260905234937 87 218 0.0 2.0 0.00 0.00 0.00 80 1011.9
20260905234432 87 257 0.0 1.0 0.00 0.00 0.00 79 1011.8
20260905233926 87 256 0.0 2.0 0.00 0.00 0.00 79 1011.7
20260905233422 87 299 0.0 0.0 0.00 0.00 0.00 78 1011.5
20260905232920 88 310 0.0 0.0 0.00 0.00 0.00 78 1011.5
20260905232417 88 269 0.0 0.0 0.00 0.00 0.00 78 1011.9
20260905231912 88 212 0.0 2.0 0.00 0.00 0.00 77 1011.7
20260905231408 89 240 2.0 2.0 0.00 0.00 0.00 76 1011.8
20260905230904 89 246 0.0 1.0 0.00 0.00 0.00 75 1011.6
20260905230402 89 249 0.0 2.0 0.00 0.00 0.00 75 1011.7
20260905225901 90 202 1.0 3.0 0.00 0.00 0.00 74 1011.5
20260905225356 90 203 0.0 1.0 0.00 0.00 0.00 73 1011.0
20260905224851 91 294 0.0 2.0 0.00 0.00 0.00 72 1011.2
20260905224348 92 197 1.0 2.0 0.00 0.00 0.00 71 1011.2
20260905223842 92 299 0.0 2.0 0.00 0.00 0.00 71 1011.2
20260905223340 93 334 0.0 3.0 0.00 0.00 0.00 69 1011.2
20260905222839 93 175 0.0 3.0 0.00 0.00 0.00 69 1011.3
20260905222338 93 167 2.0 6.0 0.00 0.00 0.00 67 1010.9
20260905221835 95 195 1.0 8.0 0.00 0.00 0.00 63 1010.8
20260905221331 97 217 0.0 2.0 0.00 0.00 0.00 55 1010.8
20260905220827 97 226 1.0 2.0 0.00 0.00 0.00 56 1010.7
20260905220323 97 213 0.0 2.0 0.00 0.00 0.00 53 1010.8
20260905215822 98 198 2.0 2.0 0.00 0.00 0.00 54 1010.6
20260905215318 97 259 2.0 2.0 0.00 0.00 0.00 52 1010.8
20260905214814 97 212 2.0 3.0 0.00 0.00 0.00 55 1010.7
20260905214309 96 278 2.0 4.0 0.00 0.00 0.00 54 1010.8
20260905213805 97 226 1.0 3.0 0.00 0.00 0.00 56 1010.9
20260905213301 96 206 1.0 3.0 0.00 0.00 0.00 54 1010.6
20260905212801 97 227 2.0 5.0 0.00 0.00 0.00 54 1010.9
20260905212255 97 212 1.0 3.0 0.00 0.00 0.00 53 1010.6
20260905211755 97 279 3.0 4.0 0.00 0.00 0.00 52 1010.8
20260905211250 98 281 2.0 4.0 0.00 0.00 0.00 52 1011.0
20260905210747 98 277 2.0 3.0 0.00 0.00 0.00 52 1010.6
20260905210246 96 279 2.0 4.0 0.00 0.00 0.00 53 1010.6
20260905205745 97 223 2.0 4.0 0.00 0.00 0.00 53 1010.3
20260905205240 97 215 1.0 4.0 0.00 0.00 0.00 55 1010.4
20260905204739 98 242 2.0 3.0 0.00 0.00 0.00 53 1010.5
20260905204235 97 212 2.0 3.0 0.00 0.00 0.00 53 1010.6
20260905203734 97 197 0.0 2.0 0.00 0.00 0.00 53 1010.4
20260905203230 97 203 2.0 3.0 0.00 0.00 0.00 55 1010.3
20260905202726 97 295 1.0 4.0 0.00 0.00 0.00 53 1010.3
20260905202221 97 247 2.0 5.0 0.00 0.00 0.00 53 1010.4
20260905201717 97 254 2.0 3.0 0.00 0.00 0.00 54 1010.3
20260905201216 97 337 3.0 5.0 0.00 0.00 0.00 54 1010.5
20260905200712 97 282 1.0 3.0 0.00 0.00 0.00 54 1010.3
20260905200207 97 262 3.0 5.0 0.00 0.00 0.00 53 1010.7
20260905195705 97 199 4.0 7.0 0.00 0.00 0.00 53 1010.4
20260905195200 98 294 1.0 2.0 0.00 0.00 0.00 53 1010.7
20260905194656 98 265 2.0 2.0 0.00 0.00 0.00 53 1010.7
20260905194156 97 269 0.0 3.0 0.00 0.00 0.00 54 1010.7
20260905193655 96 240 2.0 6.0 0.00 0.00 0.00 56 1010.8
20260905193151 95 294 2.0 3.0 0.00 0.00 0.00 56 1010.8
20260905192646 96 167 2.0 3.0 0.00 0.00 0.00 57 1011.1
20260905192142 95 216 3.0 4.0 0.00 0.00 0.00 59 1011.0
20260905191642 95 228 1.0 3.0 0.00 0.00 0.00 57 1011.0
20260905191140 95 295 3.0 4.0 0.00 0.00 0.00 59 1011.1
20260905190638 94 117 0.0 3.0 0.00 0.00 0.00 58 1011.5
20260905190138 95 275 3.0 6.0 0.00 0.00 0.00 57 1011.6
20260905185631 94 157 1.0 3.0 0.00 0.00 0.00 58 1011.7
20260905185126 95 240 2.0 4.0 0.00 0.00 0.00 59 1011.7
20260905184626 94 210 2.0 4.0 0.00 0.00 0.00 57 1011.8
20260905184125 94 271 2.0 3.0 0.00 0.00 0.00 58 1011.9
20260905183624 94 230 1.0 3.0 0.00 0.00 0.00 60 1012.0
20260905183120 94 146 2.0 4.0 0.00 0.00 0.00 59 1012.1
20260905182619 94 289 1.0 3.0 0.00 0.00 0.00 58 1012.2
20260905182119 94 138 0.0 2.0 0.00 0.00 0.00 59 1012.2
20260905181619 93 325 3.0 4.0 0.00 0.00 0.00 62 1012.4
20260905181119 93 191 3.0 6.0 0.00 0.00 0.00 60 1012.3
20260905180614 94 289 2.0 5.0 0.00 0.00 0.00 58 1012.5
20260905180109 93 27 1.0 2.0 0.00 0.00 0.00 63 1012.5
20260905175608 92 259 4.0 6.0 0.00 0.00 0.00 62 1012.6
20260905175104 93 253 3.0 3.0 0.00 0.00 0.00 65 1012.5
20260905174559 93 275 5.0 5.0 0.00 0.00 0.00 62 1012.4
20260905174054 92 264 2.0 4.0 0.00 0.00 0.00 64 1012.5
20260905173551 91 213 4.0 5.0 0.00 0.00 0.00 67 1012.6
20260905173046 90 251 2.0 6.0 0.00 0.00 0.00 67 1012.8
20260905172544 91 216 2.0 4.0 0.00 0.00 0.00 66 1012.9
20260905172040 91 282 2.0 3.0 0.00 0.00 0.00 68 1013.0
20260905171537 91 318 2.0 3.0 0.00 0.00 0.00 68 1013.1
20260905171032 91 244 3.0 5.0 0.00 0.00 0.00 67 1013.2
20260905170529 91 245 0.0 2.0 0.00 0.00 0.00 66 1013.3
20260905170024 91 237 2.0 3.0 0.00 0.00 0.00 66 1013.3
20260905165519 90 204 2.0 2.0 0.00 0.00 0.00 67 1013.3
20260905165014 90 223 1.0 2.0 0.00 0.00 0.00 68 1013.4
20260905164514 91 291 3.0 5.0 0.00 0.00 0.00 68 1013.6
20260905164008 92 247 3.0 4.0 0.00 0.00 0.00 68 1013.9
20260905163504 90 263 1.0 2.0 0.00 0.00 0.00 68 1013.9
20260905163000 90 264 2.0 4.0 0.00 0.00 0.00 69 1013.8
20260905162455 90 255 3.0 5.0 0.00 0.00 0.00 68 1014.0
20260905161950 91 132 1.0 2.0 0.00 0.00 0.00 67 1013.9
20260905161449 91 192 2.0 3.0 0.00 0.00 0.00 66 1013.9
20260905160947 92 245 3.0 4.0 0.00 0.00 0.00 67 1014.0
20260905160441 90 256 3.0 4.0 0.00 0.00 0.00 70 1014.0
20260905155941 90 253 0.0 3.0 0.00 0.00 0.00 70 1014.2
20260905155436 90 213 2.0 6.0 0.00 0.00 0.00 70 1014.4
20260905154935 88 348 0.0 2.0 0.00 0.00 0.00 73 1014.5
20260905154430 89 228 2.0 5.0 0.00 0.00 0.00 70 1014.5
20260905153926 91 3 3.0 3.0 0.00 0.00 0.00 68 1014.4
20260905153422 90 168 1.0 4.0 0.00 0.00 0.00 71 1014.3
20260905152921 89 263 2.0 5.0 0.00 0.00 0.00 72 1014.6
20260905152421 88 292 2.0 4.0 0.00 0.00 0.00 72 1014.5
20260905151916 88 253 2.0 5.0 0.00 0.00 0.00 73 1014.6
20260905151412 89 246 3.0 4.0 0.00 0.00 0.00 72 1014.6
20260905150907 88 333 0.0 3.0 0.00 0.00 0.00 74 1014.5
20260905150406 88 276 6.0 6.0 0.00 0.00 0.00 73 1014.6
20260905145904 88 336 0.0 4.0 0.00 0.00 0.00 74 1014.5
20260905145403 88 196 2.0 4.0 0.00 0.00 0.00 73 1014.6
20260905144903 88 267 2.0 4.0 0.00 0.00 0.00 73 1014.7
20260905144359 90 356 2.0 3.0 0.00 0.00 0.00 72 1014.7
20260905143857 88 163 1.0 2.0 0.00 0.00 0.00 74 1014.6
20260905143351 86 311 0.0 2.0 0.00 0.00 0.00 79 1014.7
20260905142851 86 255 2.0 3.0 0.00 0.00 0.00 79 1014.7
20260905142350 86 207 1.0 6.0 0.00 0.00 0.00 80 1014.6
20260905141846 86 271 3.0 4.0 0.00 0.00 0.00 80 1014.7
20260905141341 84 285 2.0 5.0 0.00 0.00 0.00 81 1014.7
20260905140837 85 243 3.0 6.0 0.00 0.00 0.00 81 1014.5
20260905140337 85 295 2.0 5.0 0.00 0.00 0.00 82 1014.5
20260905135836 84 222 3.0 6.0 0.00 0.00 0.00 82 1014.7
20260905135332 84 298 2.0 4.0 0.00 0.00 0.00 83 1014.9
20260905134828 84 298 2.0 4.0 0.00 0.00 0.00 83 1014.9
20260905134326 84 275 2.0 2.0 0.00 0.00 0.00 84 1014.8
20260905133826 84 260 2.0 3.0 0.00 0.00 0.00 85 1014.7
20260905133322 83 236 3.0 3.0 0.00 0.00 0.00 87 1014.9
20260905132821 82 311 3.0 3.0 0.00 0.00 0.00 89 1014.8
20260905132317 82 303 0.0 3.0 0.00 0.00 0.00 90 1015.0
20260905131816 82 293 0.0 3.0 0.00 0.00 0.00 90 1015.0
20260905131312 81 309 0.0 1.0 0.00 0.00 0.00 91 1015.0
20260905130807 81 219 3.0 4.0 0.00 0.00 0.00 91 1014.9
20260905130306 81 242 0.0 3.0 0.00 0.00 0.00 93 1014.9
20260905125801 80 276 3.0 3.0 0.00 0.00 0.00 94 1014.9
20260905125256 80 228 3.0 4.0 0.00 0.00 0.00 95 1014.8
20260905124752 80 264 1.0 2.0 0.00 0.00 0.00 96 1015.0
20260905124248 79 248 2.0 3.0 0.00 0.00 0.00 97 1014.9
20260905123743 79 146 0.0 2.0 0.00 0.00 0.00 97 1014.9
20260905123240 78 281 2.0 3.0 0.00 0.00 0.00 98 1014.7
20260905122735 78 284 0.0 3.0 0.00 0.00 0.00 98 1014.7
20260905122234 78 168 0.0 3.0 0.00 0.00 0.00 98 1014.7
20260905121729 77 297 0.0 3.0 0.00 0.00 0.00 98 1014.8
20260905121226 77 287 0.0 2.0 0.00 0.00 0.00 98 1014.6
20260905120724 77 218 0.0 2.0 0.00 0.00 0.00 98 1014.5
20260905120219 77 238 1.0 1.0 0.00 0.00 0.00 98 1014.6
20260905115713 76 262 1.0 1.0 0.00 0.00 0.00 98 1014.8
20260905115208 76 269 0.0 1.0 0.00 0.00 0.00 98 1014.6
20260905114708 76 300 0.0 0.0 0.00 0.00 0.00 98 1014.8
20260905114207 76 283 0.0 1.0 0.00 0.00 0.00 98 1014.6
20260905113706 75 289 1.0 2.0 0.00 0.00 0.00 98 1014.8
20260905113203 75 282 0.0 0.0 0.00 0.00 0.00 98 1014.6
20260905112702 75 322 0.0 1.0 0.00 0.00 0.00 98 1014.5
20260905112158 75 232 2.0 2.0 0.00 0.00 0.00 98 1014.4
20260905111657 75 236 0.0 1.0 0.00 0.00 0.00 98 1014.4